Weather History for Poplar Bluff, MO

Change the Weather History Date:

Wednesday, April 17, 2013

  Actual Average Record
Temperature  
Mean Temperature 70 °F -  
Max Temperature 86 °F 71 °F 89 °F (1937)
Min Temperature 55 °F 47 °F 29 °F (1951)
Cooling Degree Days 4    
Growing Degree Days 20 (Base 50)    
Moisture  
Dew Point 61 °F    
Average Humidity 75    
Maximum Humidity 90    
Minimum Humidity 53    
Precipitation  
Precipitation 0.00 in - - ()
Sea Level Pressure  
Sea Level Pressure 29.95 in    
Wind  
Wind Speed 7 mph (SE)    
Max Wind Speed 21 mph    
Max Gust Speed 29 mph    
Visibility 8 miles    
Events      
Averages and records for this station are not official NWS values.
T = Trace of Precipitation, MM = Missing Value Source: NWS Daily Summary

Daily Weather History Graph

Daily Weather History Graph

Search for Another Location

Airport:

Trip Planner

Search our weather history database for the weather conditions in past years. The results will help you decide how hot, cold, wet, or windy it might be!

Date:

Astronomy

Apr. 17, 2013 Rise Set
Actual Time 6:24 AM CDT 7:37 PM CDT
Civil Twilight 5:57 AM CDT 8:04 PM CDT
Nautical Twilight 5:25 AM CDT 8:36 PM CDT
Astronomical Twilight 4:52 AM CDT 9:10 PM CDT
Moon 11:41 AM CDT (4/17) 1:12 AM CDT (4/17)
Length of Visible Light 14h 07m
Length of Day
13h 13m
Waxing Crescent, 42% of the Moon is Illuminated
Apr 17
Waxing Crescent
Apr 18
First Quarter
Apr 25
Full
May 2
Last Quarter
May 9
New

Hourly Weather History & Observations

Time (CDT) Temp. Heat Index Dew Point Humidity Pressure Visibility Wind Dir Wind Speed Gust Speed Precip Events Conditions
12:53 AM 57.0 °F - 53.1 °F 87% 30.05 in 8.0 mi NE 5.8 mph - N/A   Clear
1:53 AM 57.9 °F - 54.0 °F 87% 30.04 in 7.0 mi NE 6.9 mph - N/A   Overcast
2:12 AM 57.2 °F - 53.6 °F 88% 30.05 in 6.0 mi NE 4.6 mph - N/A   Overcast
2:53 AM 57.0 °F - 54.0 °F 89% 30.04 in 5.0 mi NE 8.1 mph - N/A   Mostly Cloudy
3:53 AM 55.9 °F - 53.1 °F 90% 30.03 in 5.0 mi NE 4.6 mph - N/A   Partly Cloudy
4:53 AM 55.9 °F - 53.1 °F 90% 30.03 in 5.0 mi NE 4.6 mph - N/A   Scattered Clouds
5:53 AM 57.0 °F - 53.1 °F 87% 30.04 in 6.0 mi NNE 5.8 mph - N/A   Overcast
6:53 AM 55.9 °F - 53.1 °F 90% 30.05 in 4.0 mi NE 6.9 mph - N/A   Mostly Cloudy
7:06 AM 57.2 °F - 53.6 °F 88% 30.06 in 4.0 mi NE 4.6 mph - N/A   Mostly Cloudy
7:53 AM 57.0 °F - 54.0 °F 89% 30.05 in 4.0 mi East 3.5 mph - N/A   Overcast
9:09 AM 62.6 °F - 57.2 °F 82% 30.04 in 5.0 mi Calm Calm - N/A   Haze
9:53 AM 64.9 °F - 59.0 °F 81% 30.02 in 6.0 mi East 4.6 mph - N/A   Haze
10:37 AM 71.6 °F - 64.4 °F 78% 30.02 in 7.0 mi Calm Calm - N/A   Scattered Clouds
10:53 AM 73.9 °F - 66.0 °F 76% 30.01 in 8.0 mi South 4.6 mph - N/A   Mostly Cloudy
11:53 AM 79.0 °F - 69.1 °F 72% 29.99 in 9.0 mi Calm Calm - N/A   Overcast
12:14 PM 77.0 °F - 69.8 °F 78% 29.99 in 9.0 mi Calm Calm - N/A   Overcast
12:53 PM 81.0 °F 84.4 °F 70.0 °F 69% 29.97 in 9.0 mi SSW 6.9 mph - N/A   Partly Cloudy
1:53 PM 82.9 °F 86.5 °F 69.1 °F 63% 29.94 in 10.0 mi SSW 12.7 mph 23.0 mph N/A   Mostly Cloudy
2:53 PM 84.9 °F 87.6 °F 66.9 °F 55% 29.91 in 10.0 mi South 20.7 mph 28.8 mph N/A   Partly Cloudy
3:53 PM 84.9 °F 87.1 °F 66.0 °F 53% 29.87 in 10.0 mi South 17.3 mph 27.6 mph N/A   Partly Cloudy
4:53 PM 84.0 °F 87.0 °F 68.0 °F 58% 29.85 in 10.0 mi South 19.6 mph 25.3 mph N/A   Scattered Clouds
5:53 PM 82.9 °F 85.4 °F 66.9 °F 58% 29.83 in 10.0 mi South 18.4 mph 26.5 mph N/A   Partly Cloudy
6:53 PM 82.0 °F 84.1 °F 66.0 °F 58% 29.81 in 10.0 mi South 17.3 mph 23.0 mph N/A   Clear
7:53 PM 80.1 °F 81.9 °F 64.9 °F 60% 29.80 in 10.0 mi South 16.1 mph 23.0 mph N/A   Clear
8:53 PM 78.1 °F - 66.0 °F 66% 29.80 in 10.0 mi South 12.7 mph - N/A   Clear
9:53 PM 78.1 °F - 66.0 °F 66% 29.80 in 10.0 mi South 12.7 mph - N/A   Clear
10:53 PM 75.9 °F - 66.0 °F 71% 29.78 in 10.0 mi South 13.8 mph - N/A   Clear
11:53 PM 75.9 °F - 64.9 °F 69% 29.77 in 10.0 mi SSE 11.5 mph - N/A   Scattered Clouds